[Iaude] MPEC A87: 2024 AX1 [a=1.71,e=0.38,i=6.5,H=23.8]
    mpec at marsden.cfa.harvard.edu 
    mpec at marsden.cfa.harvard.edu
       
    Tue Jan  9 04:58:01 EST 2024
    
    
  
M.P.E.C. 2024-A87                               Issued 2024 January 9, 09:56 UT
     The Minor Planet Electronic Circulars contain information on unusual
         minor planets, routine data on comets and natural satellites,
         and occasional editorial announcements.  They are published
    on behalf of Division F of the International Astronomical Union by the
          Minor Planet Center, Smithsonian Astrophysical Observatory,
                          Cambridge, MA 02138, U.S.A.
			  
             Prepared using the Tamkin Foundation Computer Network
                              MPC at CFA.HARVARD.EDU
            URL https://www.minorplanetcenter.net/    ISSN 1523-6714
                                    2024 AX1                                    
Observations:
     K24A01X* C2024 01 07.43054905 44 59.749+67 41 29.95         21.45wXEA087F52
     K24A01X  C2024 01 07.44214005 45 01.796+67 41 36.61         21.54wXEA087F52
     K24A01X  C2024 01 07.45375305 45 03.879+67 41 42.63         21.70wXEA087F52
     K24A01X  C2024 01 07.46539105 45 05.966+67 41 48.66         21.44wXEA087F52
     K24A01X  C2024 01 07.58560405 45 29.662+67 42 38.59         21.43GVEA087F52
     K24A01X  C2024 01 07.58642105 45 29.787+67 42 39.10         21.45GVEA087F52
     K24A01X KC2024 01 09.36708 05 52 55.10 +68 00 13.7          20.8 GVEA087291
     K24A01X KC2024 01 09.36853 05 52 55.39 +68 00 13.7          21.5 GVEA087291
     K24A01X KC2024 01 09.36998 05 52 55.78 +68 00 15.0          21.6 GVEA087291
     K24A01X KC2024 01 09.37141 05 52 56.11 +68 00 15.1                VEA087291
Observer details:
291 LPL/Spacewatch II.  Observer C. Lejoly.  1.8-m f/2.7 reflector + CCD.
F52 Pan-STARRS 2, Haleakala.  Observers J. Herman, T. Lowe, P. Minguez, A.
    Schultz, I. Smith.  Measurers K. Chambers, T. de Boer, J. Fairlamb, H.
    Gao, M. Huber, C.-C. Lin, E. Magnier, Y. Ramanjooloo, R. Wainscoat, R.
    Weryk.  1.8-m Ritchey-Chretien + CCD.
Orbital elements:
2024 AX1                                                 Earth MOID = 0.0962 AU
Epoch 2023 Sept. 13.0 TT = JDT 2460200.5                MPC                     
M 298.16982              (2000.0)            P               Q                  
n   0.43900184     Peri.  144.78676     -0.63674955     -0.77048501             
a   1.7145829      Node   344.68965     +0.67877612     -0.54161977             
e   0.3781062      Incl.    6.53422     +0.36580459     -0.33615603             
P   2.25           H   23.86          G   0.15           U   9                  
Residuals in seconds of arc
240107 F52  0.1-  0.1-    240107 F52  0.1+  0.1-    240109 291  0.1+  0.4+
240107 F52  0.0   0.1+    240107 F52  0.2-  0.1+    240109 291  0.2+  0.0
240107 F52  0.1+  0.0     240109 291  0.1-  0.0
240107 F52  0.1+  0.0     240109 291  0.3-  0.4-
Ephemeris:
2024 AX1                 a,e,i = 1.71, 0.38, 7                   q = 1.0663
Date    TT    R. A. (2000) Decl.     Delta      r    Elong.  Phase     V
2023 12 10    05 07 09.8 +57 28 07   0.2391  1.1895   145.4    28.1    22.4
...
2023 12 25    05 14 24.1 +63 47 57   0.1898  1.1327   138.5    35.1    22.0
...
2024 01 02    05 28 05.7 +66 24 36   0.1684  1.1085   134.8    39.0    21.8
...
2024 01 08    05 47 16.4 +67 46 56   0.1539  1.0936   132.7    41.4    21.6
2024 01 09    05 51 24.9 +67 56 37   0.1516  1.0914   132.4    41.7    21.6
2024 01 10    05 55 51.2 +68 04 54   0.1494  1.0893   132.1    42.0    21.6
...
2024 01 16    06 28 49.7 +68 18 47   0.1364  1.0785   131.3    43.3    21.4
...
2024 01 24    07 26 25.0 +66 21 43   0.1209  1.0693   132.2    43.0    21.1
...
2024 02 08    09 06 58.0 +52 16 15   0.1011  1.0687   142.9    33.8    20.4
A. U. Tomatic                (C) Copyright 2024 MPC           M.P.E.C. 2024-A87
    
    
More information about the Iaude
mailing list